Time,TemperatureF,DewpointF,PressureIn,WindDirection,WindDirectionDegrees,WindSpeedMPH,WindSpeedGustMPH,Humidity,HourlyPrecipIn,Conditions,Clouds,dailyrainin,SoftwareType,DateUTC
2013-07-22 00:01:00,64.8,0.0,29.97,SSW,203,0.2,0.2,0,0.00,,,0.00,WUHU216HW,2013-07-22 04:01:00,
2013-07-22 00:06:00,64.8,0.0,29.97,WSW,248,0.4,0.7,0,0.00,,,0.00,WUHU216HW,2013-07-22 04:06:00,
2013-07-22 00:11:00,64.6,0.0,29.98,West,270,0.4,0.7,0,0.00,,,0.00,WUHU216HW,2013-07-22 04:11:00,
2013-07-22 00:16:00,64.6,0.0,29.97,West,270,0.4,0.7,0,0.00,,,0.00,WUHU216HW,2013-07-22 04:16:00,
2013-07-22 00:21:00,64.8,0.0,29.97,West,270,0.0,0.7,0,0.00,,,0.00,WUHU216HW,2013-07-22 04:21:00,
2013-07-22 00:26:00,64.6,0.0,29.98,West,270,0.0,0.2,0,0.00,,,0.00,WUHU216HW,2013-07-22 04:26:00,
2013-07-22 00:31:00,64.4,0.0,29.98,West,270,0.0,0.0,0,0.00,,,0.00,WUHU216HW,2013-07-22 04:31:00,
2013-07-22 00:36:00,64.4,0.0,29.98,West,270,0.0,0.0,0,0.00,,,0.00,WUHU216HW,2013-07-22 04:36:00,
2013-07-22 00:41:00,64.4,0.0,29.98,WNW,293,1.1,1.1,0,0.00,,,0.00,WUHU216HW,2013-07-22 04:41:00,
2013-07-22 00:46:00,64.6,0.0,29.98,WNW,293,0.0,1.1,0,0.00,,,0.00,WUHU216HW,2013-07-22 04:46:00,
2013-07-22 00:51:00,64.4,0.0,29.98,WNW,293,0.0,0.4,0,0.00,,,0.00,WUHU216HW,2013-07-22 04:51:00,
2013-07-22 00:56:00,64.4,0.0,29.98,West,270,0.0,0.7,0,0.00,,,0.00,WUHU216HW,2013-07-22 04:56:00,
2013-07-22 01:01:00,64.4,0.0,29.98,West,270,0.0,0.7,0,0.00,,,0.00,WUHU216HW,2013-07-22 05:01:00,
2013-07-22 01:06:00,64.4,0.0,29.98,West,270,0.0,0.7,0,0.00,,,0.00,WUHU216HW,2013-07-22 05:06:00,
2013-07-22 01:11:00,64.6,0.0,29.97,West,270,0.0,0.7,0,0.00,,,0.00,WUHU216HW,2013-07-22 05:11:00,
2013-07-22 01:16:00,64.6,0.0,29.97,West,270,0.0,0.0,0,0.00,,,0.00,WUHU216HW,2013-07-22 05:16:00,
2013-07-22 01:21:00,64.8,0.0,29.96,West,270,0.0,0.0,0,0.00,,,0.00,WUHU216HW,2013-07-22 05:21:00,
2013-07-22 01:26:00,64.8,0.0,29.96,SSW,203,0.0,1.1,0,0.00,,,0.00,WUHU216HW,2013-07-22 05:26:00,
2013-07-22 01:31:00,64.8,0.0,29.96,SW,225,0.9,1.1,0,0.00,,,0.00,WUHU216HW,2013-07-22 05:31:00,
2013-07-22 01:36:00,65.0,0.0,29.96,ESE,113,0.0,1.1,0,0.00,,,0.00,WUHU216HW,2013-07-22 05:36:00,
2013-07-22 01:41:00,65.2,0.0,29.96,WSW,248,0.4,1.3,0,0.00,,,0.00,WUHU216HW,2013-07-22 05:41:00,
2013-07-22 01:46:00,65.2,0.0,29.97,West,270,0.0,1.6,0,0.00,,,0.00,WUHU216HW,2013-07-22 05:46:00,
2013-07-22 01:51:00,65.3,0.0,29.96,SW,225,0.0,1.6,0,0.00,,,0.00,WUHU216HW,2013-07-22 05:51:00,
2013-07-22 01:56:00,65.3,0.0,29.96,WSW,248,0.4,0.4,0,0.00,,,0.00,WUHU216HW,2013-07-22 05:56:00,
2013-07-22 02:01:00,65.5,0.0,29.96,WNW,293,0.0,0.9,0,0.00,,,0.00,WUHU216HW,2013-07-22 06:01:00,
2013-07-22 02:06:00,65.5,0.0,29.96,West,270,0.0,0.9,0,0.00,,,0.00,WUHU216HW,2013-07-22 06:06:00,
2013-07-22 02:11:00,65.7,0.0,29.96,West,270,0.0,0.4,0,0.00,,,0.00,WUHU216HW,2013-07-22 06:11:00,
2013-07-22 02:16:00,65.9,0.0,29.96,West,270,0.2,0.4,0,0.00,,,0.00,WUHU216HW,2013-07-22 06:16:00,
2013-07-22 02:21:00,65.9,0.0,29.96,South,180,0.0,0.4,0,0.00,,,0.00,WUHU216HW,2013-07-22 06:21:00,
2013-07-22 02:26:00,66.1,0.0,29.96,South,180,0.0,0.4,0,0.00,,,0.00,WUHU216HW,2013-07-22 06:26:00,
2013-07-22 02:31:00,66.1,0.0,29.96,WNW,293,0.0,0.4,0,0.00,,,0.00,WUHU216HW,2013-07-22 06:31:00,
2013-07-22 02:36:00,66.2,0.0,29.96,NNW,338,0.0,0.4,0,0.00,,,0.00,WUHU216HW,2013-07-22 06:36:00,
2013-07-22 02:41:00,66.4,0.0,29.96,NNW,338,0.4,0.4,0,0.00,,,0.00,WUHU216HW,2013-07-22 06:41:00,
2013-07-22 02:46:00,66.6,0.0,29.96,NNW,338,0.0,0.4,0,0.00,,,0.00,WUHU216HW,2013-07-22 06:46:00,
2013-07-22 02:51:00,66.6,0.0,29.96,NNW,338,0.0,0.4,0,0.00,,,0.00,WUHU216HW,2013-07-22 06:51:00,
2013-07-22 02:56:00,66.6,0.0,29.96,ESE,113,0.4,1.1,0,0.00,,,0.00,WUHU216HW,2013-07-22 06:56:00,
2013-07-22 03:01:00,66.6,0.0,29.95,SE,135,0.7,1.1,0,0.00,,,0.00,WUHU216HW,2013-07-22 07:01:00,
2013-07-22 03:06:00,66.6,0.0,29.96,NNE,23,1.1,1.1,0,0.00,,,0.00,WUHU216HW,2013-07-22 07:06:00,
2013-07-22 03:11:00,66.6,0.0,29.96,NNE,23,1.3,1.3,0,0.00,,,0.00,WUHU216HW,2013-07-22 07:11:00,
2013-07-22 03:16:00,66.6,0.0,29.95,NE,45,0.7,1.3,0,0.00,,,0.00,WUHU216HW,2013-07-22 07:16:00,
2013-07-22 03:21:00,66.8,0.0,29.95,NNE,23,0.9,1.1,0,0.00,,,0.00,WUHU216HW,2013-07-22 07:21:00,
2013-07-22 03:26:00,66.8,0.0,29.95,NNE,23,0.2,1.1,0,0.00,,,0.00,WUHU216HW,2013-07-22 07:26:00,
2013-07-22 03:31:00,66.8,0.0,29.96,North,0,0.4,1.1,0,0.00,,,0.00,WUHU216HW,2013-07-22 07:31:00,
2013-07-22 03:36:00,66.8,0.0,29.95,North,0,0.4,0.9,0,0.00,,,0.00,WUHU216HW,2013-07-22 07:36:00,
2013-07-22 03:41:00,66.6,0.0,29.95,NNE,23,0.9,0.9,0,0.00,,,0.00,WUHU216HW,2013-07-22 07:41:00,
2013-07-22 03:46:00,66.6,0.0,29.95,NE,45,0.4,1.3,0,0.00,,,0.00,WUHU216HW,2013-07-22 07:46:00,
2013-07-22 03:51:00,66.8,0.0,29.95,East,90,0.4,1.3,0,0.00,,,0.00,WUHU216HW,2013-07-22 07:51:00,
2013-07-22 03:56:00,66.6,0.0,29.95,North,0,3.4,3.6,0,0.00,,,0.00,WUHU216HW,2013-07-22 07:56:00,
2013-07-22 04:01:00,66.6,0.0,29.95,ENE,68,1.8,3.6,0,0.00,,,0.00,WUHU216HW,2013-07-22 08:01:00,
2013-07-22 04:06:00,66.6,0.0,29.95,NE,45,0.7,3.1,0,0.00,,,0.00,WUHU216HW,2013-07-22 08:06:00,
2013-07-22 04:11:00,66.6,0.0,29.95,NE,45,3.4,3.4,0,0.00,,,0.00,WUHU216HW,2013-07-22 08:11:00,
2013-07-22 04:16:00,66.6,0.0,29.95,ENE,68,2.5,3.8,0,0.00,,,0.00,WUHU216HW,2013-07-22 08:16:00,
2013-07-22 04:21:00,66.6,0.0,29.96,ENE,68,3.4,3.8,0,0.00,,,0.00,WUHU216HW,2013-07-22 08:21:00,
2013-07-22 04:26:00,66.6,0.0,29.96,NE,45,0.4,3.4,0,0.00,,,0.00,WUHU216HW,2013-07-22 08:26:00,
2013-07-22 04:31:00,66.6,0.0,29.97,ENE,68,1.6,2.9,0,0.00,,,0.00,WUHU216HW,2013-07-22 08:31:00,
2013-07-22 04:36:00,66.6,0.0,29.97,NE,45,1.6,2.9,0,0.00,,,0.00,WUHU216HW,2013-07-22 08:36:00,
2013-07-22 04:41:00,66.6,0.0,29.97,ENE,68,0.0,1.6,0,0.00,,,0.00,WUHU216HW,2013-07-22 08:41:00,
2013-07-22 04:46:00,66.6,0.0,29.97,NNE,23,0.7,1.8,0,0.00,,,0.00,WUHU216HW,2013-07-22 08:46:00,
2013-07-22 04:51:00,66.8,0.0,29.97,NNE,23,0.7,1.8,0,0.00,,,0.00,WUHU216HW,2013-07-22 08:51:00,
2013-07-22 04:56:00,66.6,0.0,29.97,NE,45,1.1,1.8,0,0.00,,,0.00,WUHU216HW,2013-07-22 08:56:00,
2013-07-22 05:01:00,66.8,0.0,29.97,ENE,68,0.4,2.5,0,0.00,,,0.00,WUHU216HW,2013-07-22 09:01:00,
2013-07-22 05:06:00,66.6,0.0,29.97,NNE,23,1.1,2.5,0,0.00,,,0.00,WUHU216HW,2013-07-22 09:06:00,
2013-07-22 05:11:00,66.6,0.0,29.97,NE,45,2.0,2.5,0,0.00,,,0.00,WUHU216HW,2013-07-22 09:11:00,
2013-07-22 05:16:00,66.6,0.0,29.97,ENE,68,1.8,2.5,0,0.00,,,0.00,WUHU216HW,2013-07-22 09:16:00,
2013-07-22 05:21:00,66.6,0.0,29.97,North,0,0.7,2.5,0,0.00,,,0.00,WUHU216HW,2013-07-22 09:21:00,
2013-07-22 05:26:00,66.6,0.0,29.98,NW,315,0.4,1.8,0,0.00,,,0.00,WUHU216HW,2013-07-22 09:26:00,
2013-07-22 05:31:00,66.6,0.0,29.98,NW,315,0.4,1.8,0,0.01,,,0.01,WUHU216HW,2013-07-22 09:31:00,
2013-07-22 05:36:00,66.6,0.0,29.98,ENE,68,0.4,1.6,0,0.01,,,0.01,WUHU216HW,2013-07-22 09:36:00,
2013-07-22 05:41:00,66.6,0.0,29.98,North,0,1.3,1.3,0,0.01,,,0.01,WUHU216HW,2013-07-22 09:41:00,
2013-07-22 05:46:00,66.6,0.0,29.98,NNW,338,0.0,1.3,0,0.01,,,0.01,WUHU216HW,2013-07-22 09:46:00,
2013-07-22 05:51:00,66.6,0.0,29.98,North,0,0.2,0.9,0,0.01,,,0.01,WUHU216HW,2013-07-22 09:51:00,
2013-07-22 05:56:00,66.6,0.0,29.98,NE,45,2.0,2.2,0,0.01,,,0.01,WUHU216HW,2013-07-22 09:56:00,
2013-07-22 06:01:00,66.6,0.0,29.98,NE,45,1.3,3.4,0,0.01,,,0.01,WUHU216HW,2013-07-22 10:01:00,
2013-07-22 06:06:00,66.6,0.0,29.98,North,0,0.4,3.4,0,0.01,,,0.01,WUHU216HW,2013-07-22 10:06:00,
2013-07-22 06:11:00,66.6,0.0,29.98,North,0,1.1,2.0,0,0.01,,,0.01,WUHU216HW,2013-07-22 10:11:00,
2013-07-22 06:16:00,66.6,0.0,29.98,NNW,338,0.2,1.8,0,0.01,,,0.01,WUHU216HW,2013-07-22 10:16:00,
2013-07-22 06:21:00,66.6,0.0,29.98,NW,315,1.1,1.8,0,0.01,,,0.01,WUHU216HW,2013-07-22 10:21:00,
2013-07-22 06:26:00,66.6,0.0,29.98,NNE,23,0.9,1.8,0,0.00,,,0.01,WUHU216HW,2013-07-22 10:26:00,
2013-07-22 06:31:00,66.6,0.0,29.98,NE,45,0.4,2.0,0,0.00,,,0.01,WUHU216HW,2013-07-22 10:31:00,
2013-07-22 06:36:00,66.6,0.0,29.98,NW,315,1.3,2.0,0,0.00,,,0.01,WUHU216HW,2013-07-22 10:36:00,
2013-07-22 06:41:00,66.8,0.0,29.98,NNW,338,0.9,1.3,0,0.00,,,0.01,WUHU216HW,2013-07-22 10:41:00,
2013-07-22 06:46:00,67.0,0.0,29.98,North,0,0.0,1.3,0,0.00,,,0.01,WUHU216HW,2013-07-22 10:46:00,
2013-07-22 06:51:00,67.0,0.0,29.98,NE,45,0.0,1.8,0,0.00,,,0.01,WUHU216HW,2013-07-22 10:51:00,
2013-07-22 06:56:00,67.1,0.0,29.98,ENE,68,2.2,2.2,0,0.00,,,0.01,WUHU216HW,2013-07-22 10:56:00,
2013-07-22 07:01:00,67.0,0.0,29.98,NE,45,2.7,3.1,0,0.00,,,0.01,WUHU216HW,2013-07-22 11:01:00,
2013-07-22 07:06:00,67.0,0.0,29.98,NE,45,1.3,3.1,0,0.00,,,0.01,WUHU216HW,2013-07-22 11:06:00,
2013-07-22 07:11:00,67.0,0.0,29.98,NE,45,1.8,2.2,0,0.00,,,0.01,WUHU216HW,2013-07-22 11:11:00,
2013-07-22 07:16:00,67.0,0.0,29.98,ENE,68,1.8,2.5,0,0.00,,,0.01,WUHU216HW,2013-07-22 11:16:00,
2013-07-22 07:21:00,67.0,0.0,29.98,ENE,68,2.5,3.6,0,0.00,,,0.01,WUHU216HW,2013-07-22 11:21:00,
2013-07-22 07:26:00,67.3,0.0,29.98,NE,45,1.6,3.6,0,0.00,,,0.01,WUHU216HW,2013-07-22 11:26:00,
2013-07-22 07:31:00,67.3,0.0,29.98,NNE,23,2.5,2.7,0,0.00,,,0.01,WUHU216HW,2013-07-22 11:31:00,
2013-07-22 07:36:00,67.5,0.0,29.98,NNW,338,1.8,2.5,0,0.00,,,0.01,WUHU216HW,2013-07-22 11:36:00,
2013-07-22 07:41:00,67.7,0.0,29.98,NNE,23,2.5,3.8,0,0.00,,,0.01,WUHU216HW,2013-07-22 11:41:00,
2013-07-22 07:46:00,67.7,0.0,29.98,NNE,23,2.0,3.8,0,0.00,,,0.01,WUHU216HW,2013-07-22 11:46:00,
2013-07-22 07:51:00,67.7,0.0,29.98,NE,45,1.1,2.9,0,0.00,,,0.01,WUHU216HW,2013-07-22 11:51:00,
2013-07-22 07:56:00,67.5,0.0,29.98,North,0,2.5,2.9,0,0.00,,,0.01,WUHU216HW,2013-07-22 11:56:00,
2013-07-22 08:01:00,67.5,0.0,29.98,SE,135,0.2,2.9,0,0.00,,,0.01,WUHU216HW,2013-07-22 12:01:00,
2013-07-22 08:06:00,67.7,0.0,29.98,NNW,338,1.1,1.1,0,0.00,,,0.01,WUHU216HW,2013-07-22 12:06:00,
2013-07-22 08:11:00,67.9,0.0,29.98,ENE,68,0.9,2.5,0,0.00,,,0.01,WUHU216HW,2013-07-22 12:11:00,
2013-07-22 08:16:00,68.0,0.0,29.98,North,0,2.2,3.4,0,0.00,,,0.01,WUHU216HW,2013-07-22 12:16:00,
2013-07-22 08:21:00,68.0,0.0,29.98,NE,45,1.3,3.4,0,0.00,,,0.01,WUHU216HW,2013-07-22 12:21:00,
2013-07-22 08:26:00,68.2,0.0,29.98,ENE,68,1.8,4.3,0,0.00,,,0.01,WUHU216HW,2013-07-22 12:26:00,
2013-07-22 08:31:00,68.2,0.0,29.99,North,0,2.0,4.3,0,0.00,,,0.01,WUHU216HW,2013-07-22 12:31:00,
2013-07-22 08:36:00,68.4,0.0,29.99,NNE,23,2.7,2.7,0,0.00,,,0.01,WUHU216HW,2013-07-22 12:36:00,
2013-07-22 08:41:00,68.6,0.0,30.00,NNW,338,1.1,4.0,0,0.00,,,0.01,WUHU216HW,2013-07-22 12:41:00,
2013-07-22 08:46:00,68.6,0.0,29.99,ENE,68,1.8,4.0,0,0.00,,,0.01,WUHU216HW,2013-07-22 12:46:00,
2013-07-22 08:51:00,68.4,0.0,29.99,NE,45,2.2,5.4,0,0.00,,,0.01,WUHU216HW,2013-07-22 12:51:00,
2013-07-22 08:56:00,68.6,0.0,29.99,NNE,23,2.5,5.4,0,0.00,,,0.01,WUHU216HW,2013-07-22 12:56:00,
2013-07-22 09:01:00,68.8,0.0,29.99,SE,135,1.8,3.6,0,0.00,,,0.01,WUHU216HW,2013-07-22 13:01:00,
2013-07-22 09:06:00,69.1,0.0,29.99,ESE,113,1.1,3.6,0,0.00,,,0.01,WUHU216HW,2013-07-22 13:06:00,
2013-07-22 09:11:00,69.3,0.0,29.99,East,90,1.3,2.5,0,0.00,,,0.01,WUHU216HW,2013-07-22 13:11:00,
2013-07-22 09:16:00,69.3,0.0,29.99,ENE,68,1.6,3.1,0,0.00,,,0.01,WUHU216HW,2013-07-22 13:16:00,
2013-07-22 09:21:00,69.3,0.0,29.99,East,90,0.2,3.4,0,0.00,,,0.01,WUHU216HW,2013-07-22 13:21:00,
2013-07-22 09:26:00,69.5,0.0,29.99,East,90,2.7,4.0,0,0.00,,,0.01,WUHU216HW,2013-07-22 13:26:00,
2013-07-22 09:31:00,69.3,0.0,29.99,ENE,68,2.7,4.0,0,0.00,,,0.01,WUHU216HW,2013-07-22 13:31:00,
2013-07-22 09:36:00,69.3,0.0,29.99,NE,45,2.5,4.0,0,0.00,,,0.01,WUHU216HW,2013-07-22 13:36:00,
2013-07-22 09:41:00,69.3,0.0,30.00,ESE,113,1.8,3.6,0,0.00,,,0.01,WUHU216HW,2013-07-22 13:41:00,
2013-07-22 09:46:00,69.3,0.0,30.00,SE,135,1.8,3.6,0,0.00,,,0.01,WUHU216HW,2013-07-22 13:46:00,
2013-07-22 09:51:00,69.5,0.0,30.00,SSE,158,2.7,2.7,0,0.00,,,0.01,WUHU216HW,2013-07-22 13:51:00,
2013-07-22 09:56:00,69.5,0.0,30.00,SE,135,1.1,3.1,0,0.00,,,0.01,WUHU216HW,2013-07-22 13:56:00,
2013-07-22 10:01:00,69.5,0.0,30.00,ENE,68,0.4,3.1,0,0.00,,,0.01,WUHU216HW,2013-07-22 14:01:00,
2013-07-22 10:06:00,69.5,0.0,30.01,ESE,113,1.6,1.8,0,0.00,,,0.01,WUHU216HW,2013-07-22 14:06:00,
2013-07-22 10:11:00,69.5,0.0,30.01,NNW,338,0.4,1.8,0,0.00,,,0.01,WUHU216HW,2013-07-22 14:11:00,
2013-07-22 10:16:00,69.5,0.0,30.01,ENE,68,1.1,1.1,0,0.00,,,0.01,WUHU216HW,2013-07-22 14:16:00,
2013-07-22 10:21:00,69.3,0.0,30.01,North,0,0.0,1.3,0,0.00,,,0.01,WUHU216HW,2013-07-22 14:21:00,
2013-07-22 10:26:00,69.3,0.0,30.01,NNE,23,2.5,2.5,0,0.00,,,0.01,WUHU216HW,2013-07-22 14:26:00,
2013-07-22 10:31:00,69.1,0.0,30.01,WNW,293,0.0,2.5,0,0.00,,,0.01,WUHU216HW,2013-07-22 14:31:00,
2013-07-22 10:36:00,69.1,0.0,30.01,NNE,23,1.8,1.8,0,0.00,,,0.01,WUHU216HW,2013-07-22 14:36:00,
2013-07-22 10:41:00,69.1,0.0,30.01,ENE,68,1.1,2.5,0,0.00,,,0.01,WUHU216HW,2013-07-22 14:41:00,
2013-07-22 10:46:00,69.1,0.0,30.00,NNW,338,0.2,2.7,0,0.00,,,0.01,WUHU216HW,2013-07-22 14:46:00,
2013-07-22 10:51:00,69.3,0.0,30.01,NNE,23,1.6,2.7,0,0.00,,,0.01,WUHU216HW,2013-07-22 14:51:00,
2013-07-22 10:56:00,69.5,0.0,30.01,NE,45,2.5,2.5,0,0.00,,,0.01,WUHU216HW,2013-07-22 14:56:00,
2013-07-22 11:01:00,69.5,0.0,30.01,NE,45,4.5,4.5,0,0.00,,,0.01,WUHU216HW,2013-07-22 15:01:00,
2013-07-22 11:06:00,69.8,0.0,30.00,ENE,68,2.5,4.5,0,0.00,,,0.01,WUHU216HW,2013-07-22 15:06:00,
2013-07-22 11:11:00,70.0,0.0,30.01,East,90,2.5,3.4,0,0.00,,,0.01,WUHU216HW,2013-07-22 15:11:00,
2013-07-22 11:16:00,70.2,0.0,30.01,East,90,1.1,5.1,0,0.00,,,0.01,WUHU216HW,2013-07-22 15:16:00,
2013-07-22 11:21:00,70.6,0.0,30.01,ENE,68,0.9,5.1,0,0.00,,,0.01,WUHU216HW,2013-07-22 15:21:00,
2013-07-22 11:26:00,70.9,0.0,30.00,East,90,2.5,3.8,0,0.00,,,0.01,WUHU216HW,2013-07-22 15:26:00,
2013-07-22 11:31:00,70.9,0.0,30.00,ENE,68,4.0,4.0,0,0.00,,,0.01,WUHU216HW,2013-07-22 15:31:00,
2013-07-22 11:36:00,71.1,0.0,30.00,SSE,158,0.7,4.9,0,0.00,,,0.01,WUHU216HW,2013-07-22 15:36:00,
2013-07-22 11:41:00,71.1,0.0,30.00,NE,45,2.0,4.9,0,0.00,,,0.01,WUHU216HW,2013-07-22 15:41:00,
2013-07-22 11:46:00,71.1,0.0,30.00,NNE,23,2.7,2.7,0,0.00,,,0.01,WUHU216HW,2013-07-22 15:46:00,
2013-07-22 11:51:00,71.1,0.0,30.00,NNE,23,5.8,5.8,0,0.00,,,0.01,WUHU216HW,2013-07-22 15:51:00,
2013-07-22 11:56:00,71.1,0.0,30.00,NE,45,4.0,5.8,0,0.00,,,0.01,WUHU216HW,2013-07-22 15:56:00,
2013-07-22 12:01:00,71.3,0.0,30.00,NE,45,3.8,4.0,0,0.00,,,0.01,WUHU216HW,2013-07-22 16:01:00,
2013-07-22 12:06:00,71.6,0.0,30.00,ENE,68,1.3,3.8,0,0.00,,,0.01,WUHU216HW,2013-07-22 16:06:00,
2013-07-22 12:11:00,72.0,0.0,30.00,ENE,68,3.1,4.7,0,0.00,,,0.01,WUHU216HW,2013-07-22 16:11:00,
2013-07-22 12:16:00,72.4,0.0,30.00,SE,135,2.9,4.7,0,0.00,,,0.01,WUHU216HW,2013-07-22 16:16:00,
2013-07-22 12:21:00,72.7,0.0,30.00,ENE,68,2.9,4.7,0,0.00,,,0.01,WUHU216HW,2013-07-22 16:21:00,
2013-07-22 12:26:00,73.1,0.0,30.00,East,90,2.7,4.0,0,0.00,,,0.01,WUHU216HW,2013-07-22 16:26:00,
2013-07-22 12:31:00,73.6,0.0,29.99,NE,45,3.6,3.6,0,0.00,,,0.01,WUHU216HW,2013-07-22 16:31:00,
2013-07-22 12:36:00,74.0,0.0,29.99,NE,45,6.9,6.9,0,0.00,,,0.01,WUHU216HW,2013-07-22 16:36:00,
2013-07-22 12:41:00,74.5,0.0,29.99,East,90,2.0,6.9,0,0.00,,,0.01,WUHU216HW,2013-07-22 16:41:00,
2013-07-22 12:46:00,75.6,0.0,29.98,ENE,68,0.9,6.9,0,0.00,,,0.01,WUHU216HW,2013-07-22 16:46:00,
2013-07-22 12:51:00,76.3,0.0,29.98,East,90,3.1,6.3,0,0.00,,,0.01,WUHU216HW,2013-07-22 16:51:00,
2013-07-22 12:56:00,77.4,0.0,29.98,SSE,158,1.1,6.0,0,0.00,,,0.01,WUHU216HW,2013-07-22 16:56:00,
2013-07-22 13:01:00,77.6,0.0,29.98,East,90,2.5,6.3,0,0.00,,,0.01,WUHU216HW,2013-07-22 17:01:00,
2013-07-22 13:06:00,77.9,0.0,29.98,ESE,113,1.1,6.3,0,0.00,,,0.01,WUHU216HW,2013-07-22 17:06:00,
2013-07-22 13:11:00,78.1,0.0,29.97,SE,135,3.8,3.8,0,0.00,,,0.01,WUHU216HW,2013-07-22 17:11:00,
2013-07-22 13:16:00,78.5,0.0,29.97,NNE,23,3.1,3.8,0,0.00,,,0.01,WUHU216HW,2013-07-22 17:16:00,
2013-07-22 13:21:00,78.1,0.0,29.97,ESE,113,4.5,5.4,0,0.00,,,0.01,WUHU216HW,2013-07-22 17:21:00,
2013-07-22 13:26:00,77.8,0.0,29.97,East,90,1.8,5.4,0,0.00,,,0.01,WUHU216HW,2013-07-22 17:26:00,
2013-07-22 13:31:00,78.5,0.0,29.96,East,90,1.8,4.7,0,0.00,,,0.01,WUHU216HW,2013-07-22 17:31:00,
2013-07-22 13:36:00,79.6,0.0,29.97,ENE,68,3.4,3.4,0,0.00,,,0.01,WUHU216HW,2013-07-22 17:36:00,
2013-07-22 13:41:00,80.5,0.0,29.96,NE,45,6.0,6.0,0,0.00,,,0.01,WUHU216HW,2013-07-22 17:41:00,
2013-07-22 13:46:00,79.9,0.0,29.97,NE,45,3.8,7.4,0,0.00,,,0.01,WUHU216HW,2013-07-22 17:46:00,
2013-07-22 13:51:00,79.4,0.0,29.97,NNW,338,5.1,7.4,0,0.00,,,0.01,WUHU216HW,2013-07-22 17:51:00,
2013-07-22 13:56:00,78.3,0.0,29.96,NW,315,0.9,5.4,0,0.00,,,0.01,WUHU216HW,2013-07-22 17:56:00,
2013-07-22 14:02:00,77.8,0.0,29.96,WNW,293,0.7,5.4,0,0.00,,,0.01,WUHU216HW,2013-07-22 18:02:00,
2013-07-22 14:07:00,78.3,0.0,29.96,ENE,68,4.9,4.9,0,0.00,,,0.01,WUHU216HW,2013-07-22 18:07:00,
2013-07-22 14:13:00,78.8,0.0,29.96,North,0,1.6,5.6,0,0.00,,,0.01,WUHU216HW,2013-07-22 18:13:00,
2013-07-22 14:18:00,78.5,0.0,29.95,NE,45,0.7,5.4,0,0.00,,,0.01,WUHU216HW,2013-07-22 18:18:00,
2013-07-22 14:23:00,78.8,0.0,29.95,ENE,68,2.7,3.1,0,0.00,,,0.01,WUHU216HW,2013-07-22 18:23:00,
2013-07-22 14:28:00,79.2,0.0,29.95,ESE,113,4.7,4.7,0,0.00,,,0.01,WUHU216HW,2013-07-22 18:28:00,
2013-07-22 14:33:00,79.2,0.0,29.95,NNW,338,3.4,4.7,0,0.00,,,0.01,WUHU216HW,2013-07-22 18:33:00,
2013-07-22 14:38:00,79.7,0.0,29.95,ENE,68,5.8,5.8,0,0.00,,,0.01,WUHU216HW,2013-07-22 18:38:00,
2013-07-22 14:44:00,80.1,0.0,29.95,WNW,293,2.5,5.8,0,0.00,,,0.01,WUHU216HW,2013-07-22 18:44:00,
2013-07-22 14:49:00,79.9,0.0,29.95,NE,45,2.5,5.8,0,0.00,,,0.01,WUHU216HW,2013-07-22 18:49:00,
2013-07-22 14:54:00,79.9,0.0,29.95,ENE,68,2.5,4.5,0,0.00,,,0.01,WUHU216HW,2013-07-22 18:54:00,
2013-07-22 14:59:00,80.6,0.0,29.95,NE,45,2.9,4.3,0,0.00,,,0.01,WUHU216HW,2013-07-22 18:59:00,
2013-07-22 15:04:00,81.0,0.0,29.95,ESE,113,1.8,4.3,0,0.00,,,0.01,WUHU216HW,2013-07-22 19:04:00,
2013-07-22 15:09:00,81.2,0.0,29.94,NNE,23,0.9,2.9,0,0.00,,,0.01,WUHU216HW,2013-07-22 19:09:00,
2013-07-22 15:14:00,81.4,0.0,29.94,SE,135,4.0,4.0,0,0.00,,,0.01,WUHU216HW,2013-07-22 19:14:00,
2013-07-22 15:19:00,81.2,0.0,29.94,ESE,113,3.4,6.0,0,0.00,,,0.01,WUHU216HW,2013-07-22 19:19:00,
2013-07-22 15:25:00,81.5,0.0,29.94,ENE,68,2.2,6.0,0,0.00,,,0.01,WUHU216HW,2013-07-22 19:25:00,
2013-07-22 15:30:00,82.6,0.0,29.94,ENE,68,2.2,4.0,0,0.00,,,0.01,WUHU216HW,2013-07-22 19:30:00,
2013-07-22 15:35:00,83.5,0.0,29.94,SE,135,4.5,6.9,0,0.00,,,0.01,WUHU216HW,2013-07-22 19:35:00,
2013-07-22 15:40:00,83.3,0.0,29.94,East,90,2.5,6.9,0,0.00,,,0.01,WUHU216HW,2013-07-22 19:40:00,
2013-07-22 15:45:00,82.6,0.0,29.94,ENE,68,3.4,6.7,0,0.00,,,0.01,WUHU216HW,2013-07-22 19:45:00,
2013-07-22 15:51:00,81.7,0.0,29.94,East,90,3.6,3.6,0,0.00,,,0.01,WUHU216HW,2013-07-22 19:51:00,
2013-07-22 15:56:00,82.1,0.0,29.93,ESE,113,6.3,6.3,0,0.00,,,0.01,WUHU216HW,2013-07-22 19:56:00,
2013-07-22 16:01:00,81.5,0.0,29.94,SE,135,4.5,6.3,0,0.00,,,0.01,WUHU216HW,2013-07-22 20:01:00,
2013-07-22 16:06:00,80.6,0.0,29.94,SE,135,4.0,4.5,0,0.00,,,0.01,WUHU216HW,2013-07-22 20:06:00,
2013-07-22 16:11:00,80.5,0.0,29.93,ENE,68,4.5,4.5,0,0.00,,,0.01,WUHU216HW,2013-07-22 20:11:00,
2013-07-22 16:16:00,80.8,0.0,29.93,SSE,158,4.0,6.0,0,0.00,,,0.01,WUHU216HW,2013-07-22 20:16:00,
2013-07-22 16:17:00,80.8,0.0,29.93,SSE,158,4.0,6.0,0,0.00,,,0.01,WUHU216HW,2013-07-22 20:17:00,
2013-07-22 16:22:00,80.8,0.0,29.93,ENE,68,3.1,6.0,0,0.00,,,0.01,WUHU216HW,2013-07-22 20:22:00,
2013-07-22 16:27:00,80.6,0.0,29.93,ESE,113,2.2,5.4,0,0.00,,,0.01,WUHU216HW,2013-07-22 20:27:00,
2013-07-22 16:32:00,80.5,0.0,29.93,SE,135,2.7,4.7,0,0.00,,,0.01,WUHU216HW,2013-07-22 20:32:00,
2013-07-22 16:37:00,79.6,0.0,29.93,SE,135,2.7,3.6,0,0.00,,,0.01,WUHU216HW,2013-07-22 20:37:00,
2013-07-22 16:42:00,78.8,0.0,29.92,ESE,113,1.8,4.5,0,0.00,,,0.01,WUHU216HW,2013-07-22 20:42:00,
2013-07-22 16:43:00,78.8,0.0,29.92,ESE,113,2.7,4.5,0,0.00,,,0.01,WUHU216HW,2013-07-22 20:43:00,
2013-07-22 16:48:00,79.0,0.0,29.92,SE,135,4.7,4.7,0,0.00,,,0.01,WUHU216HW,2013-07-22 20:48:00,
2013-07-22 16:53:00,78.5,0.0,29.92,SE,135,3.8,6.0,0,0.00,,,0.01,WUHU216HW,2013-07-22 20:53:00,
2013-07-22 16:58:00,78.3,0.0,29.92,East,90,8.9,8.9,0,0.00,,,0.01,WUHU216HW,2013-07-22 20:58:00,
2013-07-22 17:03:00,78.3,0.0,29.92,East,90,5.6,8.9,0,0.00,,,0.01,WUHU216HW,2013-07-22 21:03:00,
2013-07-22 17:08:00,77.9,0.0,29.92,ENE,68,3.1,6.5,0,0.00,,,0.01,WUHU216HW,2013-07-22 21:08:00,
2013-07-22 17:13:00,77.6,0.0,29.92,SE,135,4.0,6.5,0,0.00,,,0.01,WUHU216HW,2013-07-22 21:13:00,
2013-07-22 17:18:00,76.9,0.0,29.92,ENE,68,2.7,5.4,0,0.00,,,0.01,WUHU216HW,2013-07-22 21:18:00,
2013-07-22 17:23:00,76.9,0.0,29.92,East,90,3.4,5.1,0,0.00,,,0.01,WUHU216HW,2013-07-22 21:23:00,
2013-07-22 17:28:00,76.9,0.0,29.92,East,90,4.7,4.9,0,0.00,,,0.01,WUHU216HW,2013-07-22 21:28:00,
2013-07-22 17:33:00,76.7,0.0,29.91,East,90,2.0,6.3,0,0.00,,,0.01,WUHU216HW,2013-07-22 21:33:00,
2013-07-22 17:38:00,76.7,0.0,29.91,East,90,3.1,6.3,0,0.00,,,0.01,WUHU216HW,2013-07-22 21:38:00,
2013-07-22 17:43:00,76.5,0.0,29.91,South,180,2.9,4.7,0,0.00,,,0.01,WUHU216HW,2013-07-22 21:43:00,
2013-07-22 17:48:00,75.8,0.0,29.91,ESE,113,4.9,4.9,0,0.00,,,0.01,WUHU216HW,2013-07-22 21:48:00,
2013-07-22 17:53:00,75.4,0.0,29.91,NE,45,2.5,4.9,0,0.00,,,0.01,WUHU216HW,2013-07-22 21:53:00,
2013-07-22 17:58:00,75.6,0.0,29.91,SE,135,4.0,4.0,0,0.00,,,0.01,WUHU216HW,2013-07-22 21:58:00,
2013-07-22 18:03:00,76.5,0.0,29.92,SE,135,2.9,4.0,0,0.00,,,0.01,WUHU216HW,2013-07-22 22:03:00,
2013-07-22 18:08:00,76.7,0.0,29.91,East,90,2.7,4.3,0,0.00,,,0.01,WUHU216HW,2013-07-22 22:08:00,
2013-07-22 18:13:00,76.7,0.0,29.91,ESE,113,3.6,4.3,0,0.00,,,0.01,WUHU216HW,2013-07-22 22:13:00,
2013-07-22 18:18:00,76.7,0.0,29.91,SE,135,2.5,3.6,0,0.00,,,0.01,WUHU216HW,2013-07-22 22:18:00,
2013-07-22 18:23:00,76.7,0.0,29.91,ESE,113,3.6,4.0,0,0.00,,,0.01,WUHU216HW,2013-07-22 22:23:00,
2013-07-22 18:28:00,76.3,0.0,29.91,SE,135,3.4,4.0,0,0.00,,,0.01,WUHU216HW,2013-07-22 22:28:00,
2013-07-22 18:33:00,75.8,0.0,29.91,ENE,68,2.0,4.0,0,0.00,,,0.01,WUHU216HW,2013-07-22 22:33:00,
2013-07-22 18:38:00,75.2,0.0,29.91,ENE,68,2.9,4.5,0,0.00,,,0.01,WUHU216HW,2013-07-22 22:38:00,
2013-07-22 18:43:00,74.3,0.0,29.91,East,90,2.2,4.5,0,0.00,,,0.01,WUHU216HW,2013-07-22 22:43:00,
2013-07-22 18:48:00,73.8,0.0,29.91,ESE,113,1.8,3.4,0,0.00,,,0.01,WUHU216HW,2013-07-22 22:48:00,
2013-07-22 18:53:00,73.3,0.0,29.91,ESE,113,3.8,4.7,0,0.00,,,0.01,WUHU216HW,2013-07-22 22:53:00,
2013-07-22 18:58:00,72.7,0.0,29.91,ENE,68,1.1,4.7,0,0.00,,,0.01,WUHU216HW,2013-07-22 22:58:00,
2013-07-22 19:03:00,72.2,0.0,29.91,ESE,113,1.8,4.0,0,0.00,,,0.01,WUHU216HW,2013-07-22 23:03:00,
2013-07-22 19:08:00,71.8,0.0,29.91,SE,135,1.1,3.4,0,0.00,,,0.01,WUHU216HW,2013-07-22 23:08:00,
2013-07-22 19:13:00,71.6,0.0,29.91,East,90,2.7,2.7,0,0.00,,,0.01,WUHU216HW,2013-07-22 23:13:00,
2013-07-22 19:18:00,71.3,0.0,29.91,ESE,113,1.8,2.9,0,0.00,,,0.01,WUHU216HW,2013-07-22 23:18:00,
2013-07-22 19:23:00,71.3,0.0,29.91,East,90,2.0,3.4,0,0.00,,,0.01,WUHU216HW,2013-07-22 23:23:00,
2013-07-22 19:28:00,70.9,0.0,29.91,East,90,1.3,3.4,0,0.00,,,0.01,WUHU216HW,2013-07-22 23:28:00,
2013-07-22 19:33:00,70.7,0.0,29.91,East,90,1.8,2.5,0,0.00,,,0.01,WUHU216HW,2013-07-22 23:33:00,
2013-07-22 19:38:00,70.4,0.0,29.91,ESE,113,1.8,1.8,0,0.00,,,0.01,WUHU216HW,2013-07-22 23:38:00,
2013-07-22 19:43:00,70.2,0.0,29.91,ESE,113,1.1,2.5,0,0.00,,,0.01,WUHU216HW,2013-07-22 23:43:00,
2013-07-22 19:48:00,69.8,0.0,29.91,East,90,1.1,2.5,0,0.00,,,0.01,WUHU216HW,2013-07-22 23:48:00,
2013-07-22 19:53:00,69.5,0.0,29.91,ENE,68,2.0,2.0,0,0.00,,,0.01,WUHU216HW,2013-07-22 23:53:00,
2013-07-22 19:58:00,69.5,0.0,29.91,ENE,68,2.0,4.0,0,0.00,,,0.01,WUHU216HW,2013-07-22 23:58:00,
2013-07-22 20:03:00,69.3,0.0,29.91,SE,135,1.1,4.0,0,0.00,,,0.01,WUHU216HW,2013-07-23 00:03:00,
2013-07-22 20:08:00,69.1,0.0,29.91,ESE,113,1.6,1.8,0,0.00,,,0.01,WUHU216HW,2013-07-23 00:08:00,
2013-07-22 20:13:00,69.1,0.0,29.91,SE,135,1.1,1.8,0,0.00,,,0.01,WUHU216HW,2013-07-23 00:13:00,
2013-07-22 20:18:00,68.9,0.0,29.91,ESE,113,1.3,1.8,0,0.00,,,0.01,WUHU216HW,2013-07-23 00:18:00,
2013-07-22 20:23:00,68.9,0.0,29.91,ENE,68,2.0,2.0,0,0.00,,,0.01,WUHU216HW,2013-07-23 00:23:00,
2013-07-22 20:28:00,68.9,0.0,29.91,ESE,113,0.7,2.0,0,0.00,,,0.01,WUHU216HW,2013-07-23 00:28:00,
2013-07-22 20:33:00,68.8,0.0,29.91,ENE,68,1.3,1.6,0,0.00,,,0.01,WUHU216HW,2013-07-23 00:33:00,
2013-07-22 20:38:00,68.8,0.0,29.91,NE,45,2.5,2.7,0,0.00,,,0.01,WUHU216HW,2013-07-23 00:38:00,
2013-07-22 20:43:00,68.9,0.0,29.91,NE,45,1.8,2.7,0,0.00,,,0.01,WUHU216HW,2013-07-23 00:43:00,
2013-07-22 20:48:00,68.8,0.0,29.91,ENE,68,4.0,4.0,0,0.00,,,0.01,WUHU216HW,2013-07-23 00:48:00,
2013-07-22 20:53:00,68.8,0.0,29.91,ENE,68,3.6,4.0,0,0.00,,,0.01,WUHU216HW,2013-07-23 00:53:00,
2013-07-22 20:58:00,68.8,0.0,29.91,NNE,23,1.6,3.6,0,0.00,,,0.01,WUHU216HW,2013-07-23 00:58:00,
2013-07-22 21:03:00,68.8,0.0,29.91,NE,45,4.5,4.5,0,0.00,,,0.01,WUHU216HW,2013-07-23 01:03:00,
2013-07-22 21:08:00,68.8,0.0,29.91,ESE,113,2.0,4.5,0,0.00,,,0.01,WUHU216HW,2013-07-23 01:08:00,
2013-07-22 21:13:00,68.8,0.0,29.91,ENE,68,2.7,4.5,0,0.00,,,0.01,WUHU216HW,2013-07-23 01:13:00,
2013-07-22 21:18:00,68.8,0.0,29.91,NE,45,2.0,3.4,0,0.00,,,0.01,WUHU216HW,2013-07-23 01:18:00,
2013-07-22 21:23:00,68.6,0.0,29.91,NE,45,2.9,3.4,0,0.00,,,0.01,WUHU216HW,2013-07-23 01:23:00,
2013-07-22 21:28:00,68.6,0.0,29.91,NE,45,4.0,4.0,0,0.00,,,0.01,WUHU216HW,2013-07-23 01:28:00,
2013-07-22 21:33:00,68.6,0.0,29.91,ENE,68,1.6,4.0,0,0.00,,,0.01,WUHU216HW,2013-07-23 01:33:00,
2013-07-22 21:38:00,68.4,0.0,29.91,ENE,68,3.1,3.1,0,0.00,,,0.01,WUHU216HW,2013-07-23 01:38:00,
2013-07-22 21:43:00,68.4,0.0,29.91,NE,45,2.5,3.6,0,0.00,,,0.01,WUHU216HW,2013-07-23 01:43:00,
2013-07-22 21:48:00,68.4,0.0,29.91,NE,45,4.0,4.0,0,0.00,,,0.01,WUHU216HW,2013-07-23 01:48:00,
2013-07-22 21:53:00,68.4,0.0,29.91,ENE,68,2.5,4.0,0,0.00,,,0.01,WUHU216HW,2013-07-23 01:53:00,
2013-07-22 21:58:00,68.2,0.0,29.91,NE,45,1.1,3.4,0,0.00,,,0.01,WUHU216HW,2013-07-23 01:58:00,
2013-07-22 22:03:00,68.2,0.0,29.91,ENE,68,0.7,2.2,0,0.00,,,0.01,WUHU216HW,2013-07-23 02:03:00,
2013-07-22 22:08:00,68.0,0.0,29.90,ENE,68,1.8,3.6,0,0.00,,,0.01,WUHU216HW,2013-07-23 02:08:00,
2013-07-22 22:13:00,68.0,0.0,29.90,East,90,3.6,3.6,0,0.00,,,0.01,WUHU216HW,2013-07-23 02:13:00,
2013-07-22 22:18:00,68.0,0.0,29.90,NE,45,2.5,3.6,0,0.00,,,0.01,WUHU216HW,2013-07-23 02:18:00,
2013-07-22 22:23:00,67.9,0.0,29.90,East,90,2.2,3.4,0,0.00,,,0.01,WUHU216HW,2013-07-23 02:23:00,
2013-07-22 22:28:00,67.9,0.0,29.90,NE,45,4.5,4.7,0,0.00,,,0.01,WUHU216HW,2013-07-23 02:28:00,
2013-07-22 22:33:00,67.7,0.0,29.90,ENE,68,2.2,4.7,0,0.00,,,0.01,WUHU216HW,2013-07-23 02:33:00,
2013-07-22 22:38:00,67.7,0.0,29.90,ESE,113,1.8,2.9,0,0.00,,,0.01,WUHU216HW,2013-07-23 02:38:00,
2013-07-22 22:43:00,67.7,0.0,29.90,ENE,68,1.8,2.9,0,0.00,,,0.01,WUHU216HW,2013-07-23 02:43:00,
2013-07-22 22:48:00,67.7,0.0,29.89,ENE,68,2.0,3.1,0,0.00,,,0.01,WUHU216HW,2013-07-23 02:48:00,
2013-07-22 22:53:00,67.7,0.0,29.89,ENE,68,2.0,4.0,0,0.00,,,0.01,WUHU216HW,2013-07-23 02:53:00,
2013-07-22 22:58:00,67.7,0.0,29.89,North,0,1.8,4.0,0,0.00,,,0.01,WUHU216HW,2013-07-23 02:58:00,
2013-07-22 23:03:00,67.7,0.0,29.89,ENE,68,4.0,5.8,0,0.00,,,0.01,WUHU216HW,2013-07-23 03:03:00,
2013-07-22 23:08:00,67.7,0.0,29.88,NE,45,3.8,5.8,0,0.00,,,0.01,WUHU216HW,2013-07-23 03:08:00,
2013-07-22 23:13:00,67.7,0.0,29.88,ENE,68,2.5,4.5,0,0.00,,,0.01,WUHU216HW,2013-07-23 03:13:00,
2013-07-22 23:18:00,67.7,0.0,29.88,NE,45,4.5,4.5,0,0.00,,,0.01,WUHU216HW,2013-07-23 03:18:00,
2013-07-22 23:23:00,67.7,0.0,29.88,NE,45,2.5,4.5,0,0.00,,,0.01,WUHU216HW,2013-07-23 03:23:00,
2013-07-22 23:28:00,67.7,0.0,29.88,East,90,0.0,3.4,0,0.00,,,0.01,WUHU216HW,2013-07-23 03:28:00,
2013-07-22 23:33:00,67.7,0.0,29.88,NE,45,2.7,2.7,0,0.00,,,0.01,WUHU216HW,2013-07-23 03:33:00,
2013-07-22 23:38:00,67.7,0.0,29.88,East,90,0.7,2.7,0,0.00,,,0.01,WUHU216HW,2013-07-23 03:38:00,
2013-07-22 23:43:00,67.7,0.0,29.88,ESE,113,0.9,2.2,0,0.00,,,0.01,WUHU216HW,2013-07-23 03:43:00,
2013-07-22 23:48:00,67.7,0.0,29.88,East,90,1.1,1.1,0,0.00,,,0.01,WUHU216HW,2013-07-23 03:48:00,
2013-07-22 23:53:00,67.7,0.0,29.88,SE,135,0.7,1.6,0,0.00,,,0.01,WUHU216HW,2013-07-23 03:53:00,
2013-07-22 23:58:00,67.7,0.0,29.88,NNE,23,0.7,2.5,0,0.00,,,0.01,WUHU216HW,2013-07-23 03:58:00,